Location: Alafon
(8.4500°N, 4.2333°E)
Time: 17:40:39
(UTC+00:00)

SR - Pass Details

Date: 10 August 2021
Orbit: 581 x 874 km, 66.7° (Epoch: 18 September)

Event Time Altitude Azimuth Distance (km) Brightness Sun altitude
Rises 13:34:50 0° 342° (NNW) 2,847 ? 63.1°
Reaches altitude 10° 13:37:07 10° 344° (NNW) 1,920 ? 62.6°
Maximum altitude 13:41:22 75° 70° (ENE) 603 ? 61.5°
Drops below altitude 10° 13:45:34 10° 155° (SSE) 1,890 ? 60.5°
Sets 13:47:48 0° 157° (SSE) 2,798 ? 60.0°
